Latest Weather Observations for Coonamble

IDN60801

Issued at 4:35 pm EST Thursday 28 August 2014 (issued every 30 minutes, with the page automatically refreshed every 10 minutes)

About weather observations | Map of weather stations | Latest weather observations for NSW | Other Formats
Station Details ID: 051161 Name: COONAMBLE AIRPORT AWS Lat: -30.98 Lon: 148.38 Height: 181.3 m
Data from the previous 72 hours. | See also: Recent months at Coonamble
Date/Time
EST
Temp
°C
App
Temp
°C
Dew
Point
Rel
Hum
%
Delta-T
°C
Wind Press
QNH
hPa
Press
MSL
hPa
Rain
since 9 am
mm
Dir
 
Spd
km/h
Gust
km/h
Spd
kts
Gust
kts
28/04:30pm 19.2 14.3 8.5 50 5.6 SE 24 37 13 20 1023.5 - 0.0
28/04:00pm 19.3 13.4 7.4 46 6.1 SSE 28 33 15 18 1023.4 1023.5 0.0
28/03:30pm 18.7 14.0 7.8 49 5.6 SSE 22 30 12 16 1023.2 - 0.0
28/03:00pm 20.0 15.9 8.0 46 6.2 SE 19 28 10 15 1023.0 1023.2 0.0
28/02:30pm 19.3 14.6 7.7 47 6.0 SSE 22 32 12 17 1023.0 - 0.0
28/02:00pm 19.2 14.4 8.8 51 5.5 SSE 24 35 13 19 1023.2 1023.3 0.0
28/01:30pm 20.0 15.9 10.1 53 5.4 SSE 22 30 12 16 1023.4 - 0.0
28/01:00pm 18.6 14.7 9.4 55 4.9 SSE 20 33 11 18 1023.6 1023.7 0.0
28/12:30pm 17.6 13.6 9.0 57 4.5 SSE 20 28 11 15 1024.0 - 0.0
28/12:00pm 18.2 14.0 9.8 58 4.5 SSE 22 32 12 17 1024.3 1024.4 0.0
28/11:30am 17.9 13.4 10.0 60 4.2 SSE 24 37 13 20 1024.5 - 0.0
28/11:00am 17.2 13.4 9.9 62 3.9 SSE 20 30 11 16 1024.8 1024.9 0.0
28/10:30am 15.7 11.3 9.1 65 3.4 S 22 30 12 16 1024.9 - 0.0
28/10:00am 14.8 10.3 8.7 67 3.1 S 22 28 12 15 1025.0 1025.1 0.0
28/09:30am 13.8 8.8 8.0 68 2.9 SSE 24 32 13 17 1025.0 - 0.0
28/09:00am 12.6 7.1 7.7 72 2.4 S 26 35 14 19 1024.9 1025.0 0.0
28/08:30am 11.4 6.5 7.1 75 2.1 S 22 28 12 15 1024.7 - 0.0
28/08:00am 10.2 5.6 6.5 78 1.7 S 20 28 11 15 1024.5 1024.6 0.0
28/07:30am 9.4 4.9 6.8 84 1.2 S 20 28 11 15 1024.3 - 0.0
28/07:00am 7.8 3.8 6.7 93 0.5 S 17 22 9 12 1024.1 1024.2 0.0
28/06:30am 7.6 3.5 6.1 90 0.7 S 17 22 9 12 1024.0 - 0.0
28/06:00am 8.4 3.9 6.2 86 1.0 S 19 26 10 14 1023.6 1023.7 0.0
28/05:30am 8.8 4.1 6.2 84 1.2 S 20 28 11 15 1023.3 - 0.0
28/05:00am 8.6 4.1 6.2 85 1.1 SSE 19 24 10 13 1022.9 1023.1 0.0
28/04:30am 8.8 4.3 6.9 88 0.9 SSE 20 28 11 15 1022.7 - 0.0
28/04:00am 8.5 4.3 7.3 92 0.6 S 19 28 10 15 1022.8 1023.0 0.0
28/03:30am 8.6 4.4 7.5 93 0.5 S 19 24 10 13 1022.8 - 0.0
28/03:00am 8.5 4.7 7.6 94 0.4 S 17 20 9 11 1022.9 1023.1 0.0
28/02:30am 8.9 5.5 7.7 92 0.6 S 15 19 8 10 1023.2 - 0.0
28/02:00am 9.5 6.1 7.8 89 0.8 SSE 15 19 8 10 1023.2 1023.3 0.0
28/01:30am 9.7 6.4 8.0 89 0.8 SSE 15 20 8 11 1023.3 - 0.0
28/01:00am 9.6 6.7 8.0 90 0.8 SE 13 19 7 10 1023.4 1023.5 0.0
28/12:30am 9.5 6.5 7.9 90 0.8 SE 13 17 7 9 1023.4 - 0.0
28/12:00am 10.3 7.0 8.2 87 1.0 SSE 15 20 8 11 1023.4 1023.5 0.0
 
Date/Time
EST
Temp
°C
App
Temp
°C
Dew
Point
Rel
Hum
%
Delta-T
°C
Wind Press
QNH
hPa
Press
MSL
hPa
Rain
since 9 am
mm
Dir
 
Spd
km/h
Gust
km/h
Spd
kts
Gust
kts
27/11:30pm 10.9 6.9 8.3 84 1.3 SE 19 22 10 12 1023.4 - 0.0
27/11:00pm 11.7 7.6 8.7 82 1.5 SSE 20 28 11 15 1023.5 1023.6 0.0
27/10:30pm 12.0 8.2 9.2 83 1.4 SSE 19 22 10 12 1023.5 - 0.0
27/10:00pm 12.0 8.7 9.7 86 1.2 SSE 17 22 9 12 1023.3 1023.4 0.0
27/09:30pm 12.3 9.1 10.0 86 1.2 SSE 17 22 9 12 1023.2 - 0.0
27/09:00pm 11.7 9.4 10.3 91 0.7 SSE 13 17 7 9 1023.3 1023.4 0.0
27/08:30pm 11.6 9.6 10.0 90 0.8 SSE 11 13 6 7 1023.2 - 0.0
27/08:00pm 12.6 10.2 10.0 84 1.3 SSE 13 19 7 10 1023.2 1023.3 0.0
27/07:30pm 12.7 10.7 10.2 85 1.3 SSE 11 15 6 8 1022.8 - 0.0
27/07:00pm 12.8 10.8 10.2 84 1.3 S 11 13 6 7 1022.5 1022.6 0.0
27/06:30pm 13.8 11.7 9.6 76 2.2 SSE 11 15 6 8 1022.0 - 0.0
27/06:00pm 15.2 12.7 9.6 69 2.9 SSE 13 17 7 9 1021.7 1021.8 0.0
27/05:30pm 16.5 12.5 9.2 62 3.8 SSE 20 28 11 15 1021.6 - 0.0
27/05:00pm 17.2 13.5 9.4 60 4.1 SSE 19 26 10 14 1021.2 1021.3 0.0
27/04:30pm 17.7 13.0 9.1 57 4.5 SSE 24 32 13 17 1021.1 - 0.0
27/04:00pm 18.7 12.3 8.4 51 5.4 SSE 32 39 17 21 1020.8 1020.9 0.0
27/03:30pm 18.7 12.8 9.2 54 5.0 SSE 30 39 16 21 1020.5 - 0.0
27/03:00pm 19.1 13.7 9.6 54 5.1 SSE 28 43 15 23 1020.4 1020.5 0.0
27/02:30pm 19.4 14.6 9.0 51 5.5 SSE 24 32 13 17 1020.5 - 0.0
27/02:00pm 19.3 14.4 8.3 49 5.7 SE 24 33 13 18 1020.6 1020.7 0.0
27/01:30pm 18.8 14.7 8.5 51 5.4 SE 20 33 11 18 1020.6 - 0.0
27/01:00pm 18.2 14.5 9.3 56 4.7 SE 19 28 10 15 1021.0 1021.1 0.0
27/12:30pm 18.7 15.4 11.5 63 4.0 SE 20 30 11 16 1021.1 - 0.0
27/12:00pm 17.3 13.4 12.0 71 2.9 SE 24 32 13 17 1021.5 1021.6 0.0
27/11:30am 16.0 12.2 11.2 73 2.6 SE 22 37 12 20 1021.8 - 0.0
27/11:00am 15.1 11.2 12.2 83 1.6 SSE 24 32 13 17 1022.1 1022.2 0.0
27/10:30am 14.9 12.3 13.1 89 1.0 SSE 19 28 10 15 1022.3 - 0.0
27/10:00am 14.0 11.5 13.4 96 0.3 SSE 19 24 10 13 1022.4 1022.5 0.0
27/09:30am 12.9 10.9 12.6 98 0.2 S 15 22 8 12 1022.3 - 0.0
27/09:00am 11.7 9.7 11.4 98 0.2 SSE 13 19 7 10 1021.7 1021.8 7.8
27/08:30am 11.3 8.8 11.0 98 0.2 SSE 15 22 8 12 1021.4 - 7.2
27/08:00am 11.1 8.1 10.8 98 0.2 S 17 22 9 12 1021.1 1021.2 6.8
27/07:30am 10.7 7.6 10.4 98 0.2 S 17 22 9 12 1020.6 - 6.8
27/07:00am 10.5 6.8 10.2 98 0.2 S 20 24 11 13 1020.2 1020.3 6.8
27/06:30am 10.4 6.9 10.1 98 0.2 S 19 24 10 13 1019.8 - 6.8
27/06:00am 10.4 6.7 10.1 98 0.2 S 20 28 11 15 1019.4 1019.5 6.8
27/05:30am 10.2 5.7 9.9 98 0.2 S 24 32 13 17 1019.1 - 6.8
27/05:00am 9.8 5.1 9.3 97 0.2 S 24 32 13 17 1018.9 1019.0 6.8
27/04:30am 9.8 4.0 9.3 97 0.3 S 30 35 16 19 1018.7 - 6.8
27/04:00am 9.6 4.9 9.1 97 0.2 SSE 24 32 13 17 1018.9 1019.0 6.8
27/03:30am 9.6 4.9 9.1 97 0.2 SSE 24 32 13 17 1019.0 - 6.8
27/03:00am 9.6 4.5 9.1 97 0.2 SSE 26 33 14 18 1018.7 1018.8 6.8
27/02:30am 9.6 4.1 9.3 98 0.2 SSE 28 35 15 19 1018.9 - 6.8
27/02:00am 9.9 4.9 9.6 98 0.2 SSE 26 32 14 17 1019.1 1019.2 6.8
27/01:30am 9.9 5.3 9.6 98 0.2 SSE 24 30 13 16 1019.5 - 6.8
27/01:00am 10.2 5.7 9.9 98 0.2 SSE 24 33 13 18 1019.8 1019.9 6.8
27/12:30am 10.4 6.9 10.1 98 0.2 ESE 19 24 10 13 1020.9 - 6.0
27/12:00am 10.5 6.4 10.2 98 0.2 SE 22 30 12 16 1021.1 1021.2 5.6
 
Date/Time
EST
Temp
°C
App
Temp
°C
Dew
Point
Rel
Hum
%
Delta-T
°C
Wind Press
QNH
hPa
Press
MSL
hPa
Rain
since 9 am
mm
Dir
 
Spd
km/h
Gust
km/h
Spd
kts
Gust
kts
26/11:30pm 10.7 7.2 10.2 97 0.3 SE 19 26 10 14 1021.0 - 5.0
26/11:00pm 10.6 8.2 10.1 97 0.3 E 13 17 7 9 1021.3 1021.4 4.6
26/10:30pm 10.9 7.5 10.4 97 0.3 SE 19 26 10 14 1021.4 - 4.4
26/10:00pm 11.3 7.3 10.4 94 0.5 SE 22 28 12 15 1021.2 1021.3 4.4
26/09:30pm 11.9 7.8 10.0 88 1.0 SE 22 32 12 17 1021.0 - 4.4
26/09:06pm 12.6 7.2 9.6 82 1.5 SE 28 33 15 18 1020.9 - 4.4
26/09:00pm 11.6 9.9 9.7 88 1.0 ESE 9 13 5 7 1020.8 1020.9 4.4
26/08:30pm 10.8 8.1 10.3 97 0.3 SE 15 22 8 12 1020.8 - 4.4
26/08:00pm 10.8 6.4 10.3 97 0.3 SSE 24 30 13 16 1020.4 1020.5 4.4
26/07:30pm 10.9 6.9 10.3 96 0.3 SE 22 33 12 18 1020.2 - 4.4
26/07:00pm 10.7 8.2 9.8 94 0.5 SSE 13 20 7 11 1020.0 1020.1 4.4
26/06:30pm 11.1 8.0 9.0 87 1.1 S 15 19 8 10 1019.4 - 4.4
26/06:00pm 11.3 7.3 8.2 81 1.5 S 19 20 10 11 1018.5 1018.6 4.4
26/05:30pm 11.6 8.0 8.5 81 1.5 SSW 17 20 9 11 1017.9 - 4.4
26/05:00pm 12.4 8.6 8.9 79 1.8 SSW 19 22 10 12 1017.6 1017.6 4.4
26/04:30pm 12.4 9.1 9.4 82 1.5 SSW 17 20 9 11 1018.0 - 4.4
26/04:00pm 13.5 9.8 7.9 69 2.8 S 17 24 9 13 1018.2 1018.3 4.4
26/03:30pm 13.5 8.5 9.6 77 2.0 S 26 32 14 17 1018.0 - 4.4
26/03:17pm 13.8 9.4 12.9 94 0.5 S 28 35 15 19 1017.7 - 4.0
26/03:00pm 14.2 12.2 12.8 91 0.8 SSW 15 17 8 9 1017.8 1017.8 3.6
26/02:30pm 14.8 13.0 12.1 84 1.5 SSW 13 17 7 9 1017.5 - 3.2
26/02:00pm 15.2 12.1 12.1 82 1.7 S 20 28 11 15 1017.5 1017.5 3.2
26/01:30pm 14.1 11.9 13.3 95 0.4 SSW 17 20 9 11 1017.4 - 3.2
26/01:00pm 16.4 12.4 8.9 61 3.9 SSW 20 26 11 14 1017.7 1017.7 0.0
26/12:30pm 17.2 14.5 8.9 58 4.3 S 13 19 7 10 1018.2 - 0.0
26/12:00pm 16.9 14.1 8.6 58 4.3 SSE 13 19 7 10 1018.8 1018.9 0.0
26/11:30am 19.0 16.4 9.2 53 5.2 NE 13 22 7 12 1019.2 - 0.0
26/11:00am 17.0 13.4 8.2 56 4.5 E 17 22 9 12 1019.6 1019.7 0.0
26/10:30am 16.3 14.3 8.8 61 3.9 ENE 9 15 5 8 1020.0 - 0.0
26/10:00am 14.3 12.7 8.9 70 2.8 S 7 11 4 6 1020.2 1020.3 0.0
26/09:30am 12.0 11.0 8.7 80 1.7 S 4 7 2 4 1020.2 - 0.0
26/09:00am 10.7 8.9 8.1 84 1.3 S 7 11 4 6 1020.2 1020.3 0.0
26/08:30am 9.2 7.4 8.1 93 0.5 SSW 7 9 4 5 1020.0 - 0.0
26/08:00am 7.7 5.4 7.3 97 0.2 SSW 9 15 5 8 1019.9 1020.0 0.0
26/07:30am 5.9 3.6 5.6 98 0.1 SSW 7 9 4 5 1019.6 - 0.0
26/07:00am 3.5 0.7 3.2 98 0.1 SW 7 9 4 5 1019.5 1019.6 0.0
26/06:30am 3.9 0.8 3.6 98 0.1 WSW 9 11 5 6 1019.3 - 0.0
26/06:00am 3.6 0.8 3.2 97 0.2 WSW 7 7 4 4 1019.1 1019.2 0.0
26/05:30am 4.1 1.6 3.7 97 0.2 SW 6 6 3 3 1019.0 - 0.0
26/05:00am 4.7 1.7 4.3 97 0.2 WSW 9 11 5 6 1018.8 1018.9 0.0
26/04:30am 4.9 1.6 4.5 97 0.2 SW 11 13 6 7 1018.8 - 0.0
26/04:00am 6.8 3.1 6.1 95 0.3 S 15 19 8 10 1018.8 1018.9 0.0
26/03:30am 5.8 2.3 5.4 97 0.2 SSW 13 17 7 9 1019.0 - 0.0
26/03:00am 6.1 2.2 5.4 95 0.3 SSW 15 17 8 9 1019.3 1019.4 0.0
26/02:30am 5.7 1.7 5.0 95 0.3 SSW 15 17 8 9 1019.5 - 0.0
26/02:00am 5.5 2.1 4.0 90 0.6 SSW 11 13 6 7 1019.8 1019.9 0.0
26/01:30am 5.7 2.1 3.2 84 1.0 SSW 11 13 6 7 1020.1 - 0.0
26/01:00am 7.9 4.5 3.9 76 1.7 S 11 15 6 8 1020.5 1020.6 0.0
26/12:30am 9.4 5.0 4.6 72 2.2 SSE 17 20 9 11 1020.8 - 0.0
26/12:00am 9.3 4.8 4.3 71 2.2 S 17 19 9 10 1021.1 1021.2 0.0
 
Date/Time
EST
Temp
°C
App
Temp
°C
Dew
Point
Rel
Hum
%
Delta-T
°C
Wind Press
QNH
hPa
Press
MSL
hPa
Rain
since 9 am
mm
Dir
 
Spd
km/h
Gust
km/h
Spd
kts
Gust
kts
25/11:30pm 9.5 5.4 4.1 69 2.4 S 15 20 8 11 1021.4 - 0.0
25/11:00pm 10.2 5.1 3.9 65 2.8 S 20 28 11 15 1021.6 1021.7 0.0
25/10:30pm 10.3 5.8 4.0 65 2.8 S 17 22 9 12 1021.8 - 0.0
25/10:00pm 10.6 6.1 4.1 64 2.9 SSW 17 22 9 12 1022.0 1022.1 0.0
25/09:30pm 9.9 5.8 4.3 68 2.5 SSW 15 19 8 10 1022.1 - 0.0
25/09:00pm 9.9 6.2 4.3 68 2.5 SSW 13 15 7 8 1022.2 1022.3 0.0
25/08:30pm 9.9 6.2 4.5 69 2.4 SSW 13 15 7 8 1022.2 - 0.0
25/08:00pm 10.4 6.8 5.0 69 2.5 SW 13 17 7 9 1022.2 1022.3 0.0
25/07:30pm 10.7 7.7 5.9 72 2.2 SSW 11 13 6 7 1022.1 - 0.0
25/07:00pm 11.7 9.3 6.8 72 2.3 SW 9 11 5 6 1021.8 1021.9 0.0
25/06:30pm 12.7 9.4 6.5 66 3.0 WSW 13 15 7 8 1021.6 - 0.0
25/06:00pm 15.0 11.4 6.6 57 4.1 WSW 15 19 8 10 1021.4 1021.5 0.0
25/05:30pm 16.7 12.7 6.5 51 5.1 WSW 17 22 9 12 1021.2 - 0.0
25/05:00pm 18.2 14.1 6.4 46 5.9 SW 17 22 9 12 1021.1 1021.2 0.0

Other Formats:

Comma delimited format used in spreadsheet applications
http://www.bom.gov.au/fwo/IDN60801/IDN60801.95718.axf

JavaScript Object Notation format (JSON) in row-major order
http://www.bom.gov.au/fwo/IDN60801/IDN60801.95718.json